STARLINK-1789, 46690

Orbit data source: Space-Track

STARLINK-1789, 46690 is a payload satellite owned by SpaceX/Seattle (US) in LEO that was launched on Sun, 18 Oct 2020 UTC via an FALCON 9 launch vehicle from the Air Force Eastern Test Range (AFETR). Payload-class satellites include a variety of spacecraft equipped with specific instruments for various scientific and technological missions. These include communications satellites like Starlink; space stations such as the ISS; scientific satellites like the Hubble; Earth observation satellites from companies like Planet Labs, Umbra, and HawkEye 360; GPS; miniature CubeSats for education and research; and military/defense satellites.

Loading next visibility...
Identifier
46690, 2020-073W
Orbit
LEO
Country
Flag of USUS
Related business
Manufacturer
SpaceX/Seattle
Mission
Partially operational Commercial Communications
Bus & Motor
STARLINK, Unknown motor
Mass
260 kg wet, ~248 kg dry
Launch date (UTC)
2020-10-18 (5 years ago)
Launch vehicle
FALCON 9
Launch site
Air Force Eastern Test Range (AFETR)
Object type
Payload
Rocket body
Debris
Shape & HBR
Box + 1 Pan, 10.1 m
Radar Cross Section
13.562 m², Large (>1 m²)

Expand to show TLE details & history
Last TLE update: 1 day ago

TLE from 1 day ago
0 STARLINK-1789
1 46690U 20073W   25287.66334413  .00086926  00000-0  22093-2 0  9990
2 46690  53.0526 161.6312 0005549 152.9278 207.2015 15.38894888275334
Epoch: 2025-10-14T15:55Z
TLE epoch observation values (Epoch: 2025-10-14T15:55:12.932Z)
Latitude
-0.00008°
Longitude
-100.62128°
Altitude
453.637 km
Speed
7.64 km/s
True Right ascension
10h 46m 31s
True Declination
0° 00' 00"
Sunlit
Object was in daylight at epoch
Visualization orbit readout
Latitude
Unknown
Longitude
Unknown
Altitude
Unknown
Speed
Unknown
Apparent Right ascension
Unknown
Apparent Declination
Unknown
Sunlit
N/A
Visualization observer readout
Local Sidereal Time
11:12:55
Azimuth
Unknown
Elevation
Unknown
Doppler factor
Unknown
Orbital elements
Apogee altitude
453.44 km
Perigee altitude
445.862 km
Semi-major axis
6,827.788 km
Eccentricity
0.00055
Inclination
53.0526°
RAAN
161.6312°
Arg. of periapsis
152.9278°
True anomaly
207.17245°
Mean anomaly
207.2015°
Eccentric anomaly
207.18697°
Mean motion
3.84701 °/min
Orbital period
93.58 mins
BSTAR
0.0022093
Loading maneuver chart data...
Computing Atmospheric mass density...
Loading historical data...
Loading historical data...
Loading historical data...
Loading historical data...
Loading historical data...
Loading historical data...
Loading historical data...

Documentation

Showing up to 5 results
|